timestamp,surface_pressure_avg,surface_temp_avg,battery_voltage,lat,long
2019-07-16 00:00:00+00:00,353.7646,10.5,12.97,47.84626,-54.09684
2019-07-16 00:10:00+00:00,349.6813,10.59,12.89,47.84626,-54.09684
2019-07-16 00:20:00+00:00,342.688,10.78,12.97,47.84626,-54.09684
2019-07-16 00:30:00+00:00,340.1779,10.66,12.97,47.84626,-54.09684
2019-07-16 00:40:00+00:00,338.0746,10.5,12.97,47.84626,-54.09684
2019-07-16 00:50:00+00:00,332.6964,10.6,12.97,47.84626,-54.09684
2019-07-16 01:00:00+00:00,327.1031,10.89,12.89,47.84626,-54.09684
2019-07-16 01:10:00+00:00,321.4597,10.8,12.81,47.84626,-54.09684
2019-07-16 01:20:00+00:00,312.0397,10.78,12.97,47.84626,-54.09684
2019-07-16 01:30:00+00:00,300.7697,10.9,12.97,47.84626,-54.09684
2019-07-16 01:40:00+00:00,299.0597,10.9,12.97,47.84626,-54.09684
2019-07-16 01:50:00+00:00,293.4497,10.8,12.97,47.84626,-54.09684
2019-07-16 02:00:00+00:00,281.2064,11.0,12.89,47.84626,-54.09684
2019-07-16 02:10:00+00:00,277.263,11.09,12.81,47.84626,-54.09684
2019-07-16 02:20:00+00:00,275.1131,11.04,12.89,47.84626,-54.09684
2019-07-16 02:30:00+00:00,264.2214,11.08,12.89,47.84626,-54.09684
2019-07-16 02:40:00+00:00,250.8231,11.29,12.97,47.84626,-54.09684
2019-07-16 02:50:00+00:00,248.7264,11.3,12.97,47.84626,-54.09684
2019-07-16 03:00:00+00:00,245.2131,11.13,12.89,47.84626,-54.09684
2019-07-16 03:10:00+00:00,234.7181,11.22,12.81,47.84626,-54.09684
2019-07-16 03:20:00+00:00,226.5015,11.34,12.89,47.84626,-54.09684
2019-07-16 03:30:00+00:00,224.1448,11.3,12.89,47.84626,-54.09684
2019-07-16 03:40:00+00:00,218.1531,11.31,12.97,47.84626,-54.09684
2019-07-16 03:50:00+00:00,211.1698,11.5,12.97,47.84626,-54.09684
2019-07-16 04:00:00+00:00,210.1048,11.5,12.89,47.84626,-54.09684
2019-07-16 04:10:00+00:00,205.8648,11.4,12.81,47.84626,-54.09684
2019-07-16 04:20:00+00:00,197.6781,11.5,12.89,47.84626,-54.09684
2019-07-16 04:30:00+00:00,195.8881,11.6,12.89,47.84626,-54.09684
2019-07-16 04:40:00+00:00,198.3931,11.59,12.89,47.84626,-54.09684
2019-07-16 04:50:00+00:00,194.3631,11.59,12.89,47.84626,-54.09684
2019-07-16 05:00:00+00:00,190.3932,11.61,12.81,47.84626,-54.09684
2019-07-16 05:10:00+00:00,196.4482,11.69,12.73,47.84626,-54.09684
2019-07-16 05:20:00+00:00,199.1682,11.7,12.81,47.84626,-54.09684
2019-07-16 05:30:00+00:00,193.1964,11.73,12.81,47.84626,-54.09684
2019-07-16 05:40:00+00:00,193.2281,11.8,12.89,47.84626,-54.09684
2019-07-16 05:50:00+00:00,201.0898,11.8,12.89,47.84626,-54.09684
2019-07-16 06:00:00+00:00,204.0764,11.8,12.81,47.84626,-54.09684
2019-07-16 06:10:00+00:00,199.7381,11.84,12.73,47.84626,-54.09684
2019-07-16 06:20:00+00:00,203.5748,11.89,12.81,47.84626,-54.09684
2019-07-16 06:30:00+00:00,211.0514,11.89,12.81,47.84626,-54.09684
2019-07-16 06:40:00+00:00,207.8231,11.9,12.81,47.84626,-54.09684
2019-07-16 06:50:00+00:00,206.9731,11.9,12.81,47.84626,-54.09684
2019-07-16 07:00:00+00:00,214.8848,11.9,12.81,47.84626,-54.09684
2019-07-16 07:10:00+00:00,221.9431,11.9,12.73,47.84626,-54.09684
2019-07-16 07:20:00+00:00,222.2714,11.9,12.81,47.84626,-54.09684
2019-07-16 07:30:00+00:00,224.8181,11.9,12.81,47.84626,-54.09684
2019-07-16 07:40:00+00:00,231.3698,11.9,12.81,47.84626,-54.09684
2019-07-16 07:50:00+00:00,237.4214,11.9,12.81,47.84626,-54.09684
2019-07-16 08:00:00+00:00,239.9864,11.9,12.73,47.84626,-54.09684
2019-07-16 08:10:00+00:00,243.5547,11.9,12.65,47.84626,-54.09684
2019-07-16 08:20:00+00:00,249.9898,11.9,12.73,47.84626,-54.09684
2019-07-16 08:30:00+00:00,255.7797,11.9,12.81,47.84626,-54.09684
2019-07-16 08:40:00+00:00,257.9681,11.98,12.81,47.84626,-54.09684
2019-07-16 08:50:00+00:00,263.2797,11.91,12.81,47.84626,-54.09684
2019-07-16 09:00:00+00:00,271.7414,11.9,12.73,47.84626,-54.09684
2019-07-16 09:10:00+00:00,280.3114,11.95,12.73,47.84626,-54.09684
2019-07-16 09:20:00+00:00,283.4998,11.92,12.81,47.84626,-54.09684
2019-07-16 09:30:00+00:00,290.1347,11.94,12.89,47.84626,-54.09684
2019-07-16 09:40:00+00:00,300.0247,11.99,12.89,47.84626,-54.09684
2019-07-16 09:50:00+00:00,307.2764,11.98,12.97,47.84626,-54.09684
2019-07-16 10:00:00+00:00,306.088,11.98,13.05,47.84626,-54.09684
2019-07-16 10:10:00+00:00,310.628,12.0,13.05,47.84626,-54.09684
2019-07-16 10:20:00+00:00,317.3646,12.0,13.21,47.84626,-54.09684
2019-07-16 10:30:00+00:00,317.3747,12.0,13.37,47.84626,-54.09684
2019-07-16 10:40:00+00:00,315.7947,11.99,13.44,47.84626,-54.09684
2019-07-16 10:50:00+00:00,322.3863,11.97,13.53,47.84626,-54.09684
2019-07-16 11:00:00+00:00,324.023,11.98,13.53,47.84626,-54.09684
2019-07-16 11:10:00+00:00,322.0663,11.9,13.44,47.84626,-54.09684
2019-07-16 11:20:00+00:00,324.353,11.9,13.53,47.84626,-54.09684
2019-07-16 11:30:00+00:00,328.9863,11.9,13.6,47.84626,-54.09684
2019-07-16 11:40:00+00:00,326.8513,11.9,13.6,47.84626,-54.09684
2019-07-16 11:50:00+00:00,327.218,11.9,13.6,47.84626,-54.09684
2019-07-16 12:00:00+00:00,329.088,11.87,13.53,47.84626,-54.09684
2019-07-16 12:10:00+00:00,329.0547,11.86,13.44,47.84626,-54.09684
2019-07-16 12:20:00+00:00,323.378,11.88,13.53,47.84626,-54.09684
2019-07-16 12:30:00+00:00,320.043,11.82,13.53,47.84626,-54.09684
2019-07-16 12:40:00+00:00,318.3214,11.8,13.6,47.84626,-54.09684
2019-07-16 12:50:00+00:00,316.1497,11.83,13.6,47.84626,-54.09684
2019-07-16 13:00:00+00:00,312.593,11.87,13.6,47.84626,-54.09684
2019-07-16 13:10:00+00:00,308.2629,11.9,13.68,47.84626,-54.09684
2019-07-16 13:20:00+00:00,304.1813,11.9,13.84,47.84626,-54.09684
2019-07-16 13:30:00+00:00,298.173,11.9,13.92,47.84626,-54.09684
2019-07-16 13:40:00+00:00,291.1697,11.96,14.0,47.84626,-54.09684
2019-07-16 13:50:00+00:00,280.728,12.0,14.08,47.84626,-54.09684
2019-07-16 14:00:00+00:00,271.7181,12.0,14.0,47.84626,-54.09684
2019-07-16 14:10:00+00:00,264.0347,12.0,14.0,47.84626,-54.09684
2019-07-16 14:20:00+00:00,255.6097,12.0,14.16,47.84626,-54.09684
2019-07-16 14:30:00+00:00,242.8614,12.04,14.24,47.84626,-54.09684
2019-07-16 14:40:00+00:00,237.5648,12.1,14.32,47.84626,-54.09684
2019-07-16 14:50:00+00:00,235.7864,12.1,14.32,47.84626,-54.09684
2019-07-16 15:00:00+00:00,227.6364,12.19,14.16,47.84626,-54.09684
2019-07-16 15:10:00+00:00,217.2198,12.28,14.08,47.84626,-54.09684
2019-07-16 15:20:00+00:00,214.2197,12.3,14.32,47.84626,-54.09684
2019-07-16 15:30:00+00:00,212.6331,12.3,14.48,47.84626,-54.09684
2019-07-16 15:40:00+00:00,204.4981,12.31,14.48,47.84626,-54.09684
2019-07-16 15:50:00+00:00,197.1881,12.4,14.32,47.84626,-54.09684
2019-07-16 16:00:00+00:00,196.9548,12.4,14.4,47.84626,-54.09684
2019-07-16 16:10:00+00:00,193.6398,12.4,14.24,47.84626,-54.09684
2019-07-16 16:20:00+00:00,190.6931,12.4,14.32,47.84626,-54.09684
2019-07-16 16:30:00+00:00,191.8648,12.39,14.4,47.84626,-54.09684
2019-07-16 16:40:00+00:00,190.8482,12.36,14.32,47.84626,-54.09684
2019-07-16 16:50:00+00:00,187.3131,12.36,14.4,47.84626,-54.09684
2019-07-16 17:00:00+00:00,185.4064,12.37,14.32,47.84626,-54.09684
2019-07-16 17:10:00+00:00,186.8514,12.38,14.24,47.84626,-54.09684
2019-07-16 17:20:00+00:00,185.7365,12.39,14.56,47.84626,-54.09684
2019-07-16 17:30:00+00:00,183.0415,12.4,14.48,47.84626,-54.09684
2019-07-16 17:40:00+00:00,188.8498,12.4,14.4,47.84626,-54.09684
2019-07-16 17:50:00+00:00,193.8482,12.4,14.4,47.84626,-54.09684
2019-07-16 18:00:00+00:00,193.6215,12.4,14.24,47.84626,-54.09684
2019-07-16 18:10:00+00:00,196.8381,12.4,14.24,47.84626,-54.09684
2019-07-16 18:20:00+00:00,203.5465,12.41,14.32,47.84626,-54.09684
2019-07-16 18:30:00+00:00,204.6398,12.43,14.24,47.84626,-54.09684
2019-07-16 18:40:00+00:00,206.2731,12.5,14.24,47.84626,-54.09684
2019-07-16 18:50:00+00:00,213.5265,12.5,14.24,47.84626,-54.09684
2019-07-16 19:00:00+00:00,220.1698,12.49,14.16,47.84626,-54.09684
2019-07-16 19:10:00+00:00,221.6497,12.5,14.08,47.84626,-54.09684
2019-07-16 19:20:00+00:00,225.9814,12.5,14.16,47.84626,-54.09684
2019-07-16 19:30:00+00:00,233.4414,12.5,14.16,47.84626,-54.09684
2019-07-16 19:40:00+00:00,237.3631,12.5,14.08,47.84626,-54.09684
2019-07-16 19:50:00+00:00,239.6781,12.59,14.08,47.84626,-54.09684
2019-07-16 20:00:00+00:00,245.9097,12.68,14.08,47.84626,-54.09684
2019-07-16 20:10:00+00:00,252.6648,12.7,13.92,47.84626,-54.09684
2019-07-16 20:20:00+00:00,255.5347,12.72,13.92,47.84626,-54.09684
2019-07-16 20:30:00+00:00,261.1848,12.8,13.84,47.84626,-54.09684
2019-07-16 20:40:00+00:00,271.2014,12.7,13.92,47.84626,-54.09684
2019-07-16 20:50:00+00:00,280.168,12.6,13.92,47.84626,-54.09684
2019-07-16 21:00:00+00:00,285.4897,12.68,13.84,47.84626,-54.09684
2019-07-16 21:10:00+00:00,294.5297,12.79,13.76,47.84626,-54.09684
2019-07-16 21:20:00+00:00,303.7797,12.8,13.76,47.84626,-54.09684
2019-07-16 21:30:00+00:00,310.823,12.8,13.76,47.84626,-54.09684
2019-07-16 21:40:00+00:00,316.1897,12.8,13.76,47.84626,-54.09684
2019-07-16 21:50:00+00:00,326.438,12.78,13.76,47.84626,-54.09684
2019-07-16 22:00:00+00:00,337.7129,12.79,13.68,47.84626,-54.09684
2019-07-16 22:10:00+00:00,341.3979,12.86,13.53,47.84626,-54.09684
2019-07-16 22:20:00+00:00,344.1296,13.18,13.6,47.84626,-54.09684
2019-07-16 22:30:00+00:00,351.9863,13.29,13.6,47.84626,-54.09684
2019-07-16 22:40:00+00:00,358.8328,13.3,13.53,47.84626,-54.09684
2019-07-16 22:50:00+00:00,357.6313,13.3,13.53,47.84626,-54.09684
2019-07-16 23:00:00+00:00,359.3097,13.3,13.37,47.84626,-54.09684
2019-07-16 23:10:00+00:00,364.6913,12.9,13.21,47.84626,-54.09684
2019-07-16 23:20:00+00:00,364.8278,12.29,13.21,47.84626,-54.09684
2019-07-16 23:30:00+00:00,360.963,12.33,13.21,47.84626,-54.09684
2019-07-16 23:40:00+00:00,360.9629,12.3,13.21,47.84626,-54.09684
2019-07-16 23:50:00+00:00,362.713,12.3,13.13,47.84626,-54.09684
